TimeCEST,TemperatureF,Dew PointF,Humidity,Sea Level PressureIn,VisibilityMPH,Wind Direction,Wind SpeedMPH,Gust SpeedMPH,PrecipitationIn,Events,Conditions,WindDirDegrees,DateUTC
7:23 AM,68.0,66.2,94,29.98,-9999.0,Variable,2.3,-,N/A,,Clear,0,2013-07-21 05:23:00
7:50 AM,69.8,66.2,88,29.98,-9999.0,Variable,2.3,-,N/A,,Clear,0,2013-07-21 05:50:00
8:50 AM,73.4,64.4,73,29.98,-9999.0,NE,8.1,-,N/A,,Clear,50,2013-07-21 06:50:00
9:50 AM,77.0,66.2,69,29.98,-9999.0,ENE,4.6,-,N/A,,Clear,60,2013-07-21 07:50:00
10:50 AM,82.4,66.2,58,29.98,-9999.0,Variable,3.5,-,N/A,,Clear,0,2013-07-21 08:50:00
11:50 AM,84.2,64.4,51,29.98,-9999.0,Variable,2.3,-,N/A,,Clear,0,2013-07-21 09:50:00
12:50 PM,87.8,62.6,43,29.98,6.2,Variable,2.3,-,N/A,,Partly Cloudy,0,2013-07-21 10:50:00
1:50 PM,89.6,64.4,43,29.95,6.2,Variable,1.2,-,N/A,,Partly Cloudy,0,2013-07-21 11:50:00
2:50 PM,91.4,64.4,41,29.95,6.2,Variable,2.3,-,N/A,,Scattered Clouds,0,2013-07-21 12:50:00
3:50 PM,89.6,68.0,49,29.92,6.2,WSW,11.5,-,N/A,,Scattered Clouds,250,2013-07-21 13:50:00
4:25 PM,75.2,59.0,57,29.98,6.2,SSE,17.3,39.1,N/A,Thunderstorm,Scattered Clouds,150,2013-07-21 14:25:00
4:50 PM,75.2,59.0,57,29.98,6.2,SSW,15.0,-,N/A,Thunderstorm,Thunderstorm,200,2013-07-21 14:50:00
5:25 PM,75.2,64.4,69,29.98,6.2,SW,8.1,-,N/A,Thunderstorm,Mostly Cloudy,220,2013-07-21 15:25:00
5:50 PM,75.2,64.4,69,29.98,6.2,Variable,1.2,-,N/A,Thunderstorm,Mostly Cloudy,0,2013-07-21 15:50:00
6:05 PM,75.2,62.6,65,30.01,6.2,NNE,9.2,-,N/A,Rain-Thunderstorm,Light Thunderstorms and Rain,20,2013-07-21 16:05:00
6:50 PM,73.4,62.6,69,30.01,6.2,Variable,2.3,-,N/A,Rain-Thunderstorm,Light Thunderstorms and Rain,0,2013-07-21 16:50:00
7:25 PM,71.6,62.6,73,30.01,6.2,ENE,6.9,-,N/A,Thunderstorm,Mostly Cloudy,70,2013-07-21 17:25:00
7:50 PM,71.6,62.6,73,30.01,6.2,North,5.8,-,N/A,,Mostly Cloudy,10,2013-07-21 17:50:00
8:50 PM,69.8,62.6,78,30.01,6.2,North,5.8,-,N/A,,Mostly Cloudy,10,2013-07-21 18:50:00
9:50 PM,68.0,60.8,78,30.01,6.2,Variable,2.3,-,N/A,,Mostly Cloudy,0,2013-07-21 19:50:00